UAL622 KEWR-BIKF

Flight info

Callsign UAL622
Flight time N/A
Altitude 37000
Route MERIT DCT HFD DCT MHT DCT BGR DCT MIILS DCT IRLOK/M084F390 DCT 58N050W 6130N04000W 63N030W DCT EPENI DCT ELDIS ELDIS4K
Aircraft B77W/H-SDE1E2E3FGHIJ2J3J4J5M1RWXY/LB1D1

Departure

Time 2026-04-25 18:45
Airport Newark Liberty International Airport (KEWR)

Arrival

Time N/A
Airport Keflavik International Airport (BIKF)
Time Latitude Longitude Altitude Speed Heading
2026-04-25 17:53 40.69814 -74.17812 19 ft 0 kts 286°
2026-04-25 18:21 40.69814 -74.17813 18 ft 0 kts 286°
2026-04-25 18:31 40.69814 -74.17814 18 ft 0 kts 286°
2026-04-25 18:33 40.69815 -74.17815 18 ft 2 kts 297°
2026-04-25 18:33 40.69831 -74.17782 18 ft 8 kts 90°
2026-04-25 18:33 40.69834 -74.17707 18 ft 6 kts 62°
2026-04-25 18:33 40.69838 -74.17702 18 ft 0 kts 36°
2026-04-25 18:34 40.69839 -74.17701 18 ft 1 kts 38°
2026-04-25 18:34 40.69840 -74.17699 18 ft 0 kts 39°
2026-04-25 18:35 40.69841 -74.17699 18 ft 0 kts 39°
2026-04-25 18:35 40.69842 -74.17698 18 ft 1 kts 39°
2026-04-25 18:35 40.69883 -74.17654 18 ft 4 kts 43°
2026-04-25 18:36 40.69907 -74.17553 18 ft 16 kts 73°
2026-04-25 18:36 40.69967 -74.17476 18 ft 8 kts 44°
2026-04-25 18:36 40.70013 -74.17415 18 ft 10 kts 48°
2026-04-25 18:36 40.70031 -74.17373 19 ft 2 kts 82°
2026-04-25 18:37 40.70035 -74.17321 19 ft 13 kts 86°
2026-04-25 18:37 40.70028 -74.17171 18 ft 22 kts 95°
2026-04-25 18:37 40.70015 -74.16932 19 ft 26 kts 95°
2026-04-25 18:37 40.70002 -74.16805 19 ft 7 kts 99°
2026-04-25 18:38 40.69998 -74.16730 19 ft 8 kts 93°
2026-04-25 18:38 40.69995 -74.16653 19 ft 8 kts 94°
2026-04-25 18:38 40.69957 -74.16588 19 ft 8 kts 179°
2026-04-25 18:38 40.69886 -74.16619 19 ft 14 kts 201°
2026-04-25 18:39 40.69792 -74.16679 19 ft 15 kts 206°
2026-04-25 18:39 40.69683 -74.16749 19 ft 19 kts 205°
2026-04-25 18:39 40.69552 -74.16831 19 ft 22 kts 206°
2026-04-25 18:39 40.69403 -74.16925 19 ft 24 kts 207°
2026-04-25 18:40 40.69249 -74.17018 19 ft 22 kts 203°
2026-04-25 18:40 40.69123 -74.17105 19 ft 19 kts 207°
2026-04-25 18:40 40.69002 -74.17178 19 ft 18 kts 206°
2026-04-25 18:40 40.68891 -74.17252 19 ft 17 kts 205°
2026-04-25 18:41 40.68757 -74.17333 19 ft 24 kts 206°
2026-04-25 18:41 40.68610 -74.17429 19 ft 22 kts 205°
2026-04-25 18:41 40.68473 -74.17514 19 ft 21 kts 206°
2026-04-25 18:41 40.68344 -74.17595 19 ft 19 kts 205°
2026-04-25 18:42 40.68251 -74.17655 19 ft 9 kts 207°
2026-04-25 18:42 40.68241 -74.17662 19 ft 1 kts 203°
2026-04-25 18:42 40.68197 -74.17689 19 ft 10 kts 200°
2026-04-25 18:42 40.68071 -74.17767 19 ft 29 kts 208°
2026-04-25 18:43 40.67847 -74.17912 19 ft 36 kts 207°
2026-04-25 18:43 40.67730 -74.17976 19 ft 10 kts 178°
2026-04-25 18:43 40.67688 -74.17867 19 ft 18 kts 51°
2026-04-25 18:43 40.67729 -74.17830 19 ft 1 kts 26°
2026-04-25 18:44 40.67836 -74.17761 19 ft 50 kts 26°
2026-04-25 18:44 40.68369 -74.17423 19 ft 117 kts 26°
2026-04-25 18:44 40.69290 -74.16847 82 ft 165 kts 28°
2026-04-25 18:45 40.70276 -74.16003 515 ft 178 kts 53°
2026-04-25 18:45 40.70822 -74.14539 1280 ft 181 kts 81°
2026-04-25 18:45 40.71225 -74.12901 1984 ft 200 kts 63°
2026-04-25 18:45 40.72174 -74.11479 2530 ft 227 kts 46°
2026-04-25 18:46 40.73399 -74.09940 2813 ft 250 kts 52°
2026-04-25 18:46 40.74558 -74.08240 3594 ft 255 kts 52°
2026-04-25 18:46 40.75747 -74.06482 4274 ft 264 kts 51°
2026-04-25 18:46 40.76999 -74.04644 5002 ft 270 kts 50°
2026-04-25 18:47 40.78268 -74.02788 5718 ft 277 kts 48°
2026-04-25 18:47 40.79551 -74.00909 6395 ft 283 kts 47°
2026-04-25 18:47 40.80893 -73.98945 7119 ft 288 kts 47°
2026-04-25 18:47 40.82223 -73.96994 7887 ft 290 kts 45°
2026-04-25 18:48 40.83579 -73.95006 8562 ft 295 kts 45°
2026-04-25 18:48 40.84960 -73.92979 9240 ft 299 kts 45°
2026-04-25 18:48 40.86343 -73.90946 9890 ft 304 kts 44°
2026-04-25 18:48 40.87777 -73.88839 10397 ft 315 kts 44°
2026-04-25 18:49 40.89286 -73.86623 10735 ft 332 kts 44°
2026-04-25 18:49 40.90854 -73.84316 11108 ft 349 kts 44°
2026-04-25 18:49 40.92517 -73.81868 11506 ft 365 kts 44°
2026-04-25 18:49 40.94242 -73.79324 11934 ft 381 kts 44°
2026-04-25 18:50 40.96064 -73.76635 12388 ft 398 kts 45°
2026-04-25 18:50 40.97945 -73.73856 12922 ft 412 kts 45°
2026-04-25 18:50 40.99856 -73.71028 13708 ft 419 kts 45°
2026-04-25 18:50 41.01782 -73.68174 14699 ft 422 kts 44°
2026-04-25 18:51 41.03741 -73.65270 15712 ft 425 kts 44°
2026-04-25 18:51 41.05050 -73.63327 16345 ft 428 kts 44°
2026-04-25 18:51 41.07722 -73.59362 17520 ft 437 kts 44°
2026-04-25 18:51 41.09765 -73.56325 18341 ft 444 kts 44°
2026-04-25 18:52 41.11808 -73.53287 19201 ft 449 kts 44°
2026-04-25 18:52 41.13882 -73.50198 20088 ft 453 kts 43°
2026-04-25 18:52 41.15981 -73.47069 20903 ft 459 kts 43°
2026-04-25 18:52 41.18137 -73.43852 21638 ft 466 kts 43°
2026-04-25 18:53 41.20285 -73.40643 22372 ft 472 kts 43°
2026-04-25 18:53 41.22475 -73.37367 23201 ft 475 kts 43°
2026-04-25 18:53 41.24669 -73.34082 23988 ft 479 kts 43°
2026-04-25 18:53 41.26868 -73.30787 24662 ft 485 kts 43°
2026-04-25 18:54 41.31390 -73.24000 26077 ft 496 kts 43°
2026-04-25 18:54 41.33679 -73.20557 26764 ft 501 kts 43°
2026-04-25 18:54 41.35973 -73.17104 27414 ft 507 kts 43°
2026-04-25 18:55 41.38213 -73.13427 28056 ft 518 kts 50°
2026-04-25 18:55 41.40150 -73.09345 28753 ft 525 kts 54°
2026-04-25 18:55 41.42023 -73.05135 29397 ft 531 kts 54°
2026-04-25 18:55 41.43898 -73.00887 30079 ft 534 kts 54°
2026-04-25 18:56 41.45763 -72.96655 30833 ft 535 kts 54°
2026-04-25 18:56 41.47608 -72.92418 31794 ft 530 kts 54°
2026-04-25 18:56 41.49461 -72.88197 32870 ft 521 kts 53°
2026-04-25 18:56 41.51265 -72.84094 33902 ft 513 kts 53°
2026-04-25 18:57 41.53034 -72.80068 34827 ft 508 kts 53°
2026-04-25 18:57 41.54155 -72.77513 35360 ft 505 kts 53°
2026-04-25 18:57 41.56238 -72.72766 36105 ft 505 kts 53°
2026-04-25 18:57 41.57276 -72.70394 36434 ft 505 kts 53°
2026-04-25 18:58 41.60245 -72.63606 37095 ft 507 kts 53°
2026-04-25 18:58 41.64130 -72.55860 37087 ft 493 kts 41°
2026-04-25 18:58 41.66579 -72.52666 37079 ft 485 kts 32°
2026-04-25 18:59 41.77410 -72.42268 37080 ft 477 kts 28°
2026-04-25 19:00 41.85543 -72.34589 37078 ft 477 kts 28°
2026-04-25 19:01 41.93746 -72.26824 37057 ft 478 kts 28°
2026-04-25 19:01 41.99169 -72.21679 37052 ft 477 kts 28°
2026-04-25 19:02 42.07269 -72.13976 37043 ft 477 kts 28°
2026-04-25 19:03 42.13652 -72.07890 37057 ft 480 kts 28°
2026-04-25 19:03 42.20878 -72.00977 37058 ft 476 kts 28°
2026-04-25 19:04 42.28998 -71.93189 37063 ft 477 kts 28°
2026-04-25 19:05 42.39848 -71.82742 37069 ft 477 kts 28°
2026-04-25 19:06 42.45254 -71.77520 37074 ft 477 kts 28°
2026-04-25 19:06 42.53318 -71.69707 37073 ft 475 kts 28°
2026-04-25 19:07 42.61384 -71.61871 37082 ft 476 kts 28°
2026-04-25 19:08 42.69465 -71.53992 37080 ft 474 kts 27°
2026-04-25 19:09 42.78411 -71.45240 37089 ft 474 kts 28°
2026-04-25 19:10 42.88147 -71.35386 37094 ft 480 kts 33°
2026-04-25 19:10 42.93188 -71.29306 37073 ft 484 kts 34°
2026-04-25 19:11 42.98196 -71.23228 37079 ft 480 kts 34°
2026-04-25 19:11 43.03253 -71.17083 37077 ft 483 kts 34°
2026-04-25 19:12 43.08248 -71.10998 37077 ft 482 kts 34°
2026-04-25 19:12 43.13271 -71.04868 37093 ft 481 kts 34°
2026-04-25 19:13 43.18251 -70.98775 37089 ft 481 kts 34°
2026-04-25 19:13 43.23248 -70.92648 37090 ft 480 kts 34°
2026-04-25 19:14 43.28218 -70.86540 37091 ft 481 kts 33°
2026-04-25 19:14 43.33193 -70.80413 37085 ft 481 kts 33°
2026-04-25 19:15 43.38140 -70.74303 37090 ft 479 kts 33°
2026-04-25 19:15 43.43103 -70.68162 37083 ft 477 kts 34°
2026-04-25 19:16 43.48069 -70.62006 37080 ft 478 kts 33°
2026-04-25 19:16 43.53000 -70.55872 37091 ft 476 kts 33°
2026-04-25 19:17 43.57954 -70.49702 37074 ft 475 kts 33°
2026-04-25 19:17 43.62871 -70.43563 37082 ft 478 kts 33°
2026-04-25 19:18 43.67798 -70.37394 37076 ft 475 kts 33°
2026-04-25 19:18 43.72691 -70.31255 37059 ft 476 kts 34°
2026-04-25 19:19 43.77594 -70.25092 37055 ft 476 kts 34°
2026-04-25 19:19 43.82449 -70.18969 37061 ft 471 kts 34°
2026-04-25 19:20 43.87333 -70.12800 37060 ft 473 kts 34°
2026-04-25 19:20 43.92200 -70.06638 37057 ft 475 kts 34°
2026-04-25 19:21 43.97067 -70.00459 37057 ft 471 kts 34°
2026-04-25 19:21 44.04296 -69.91260 37052 ft 474 kts 34°
2026-04-25 19:22 44.09143 -69.85071 37041 ft 471 kts 34°
2026-04-25 19:23 44.16441 -69.75729 37053 ft 472 kts 34°
2026-04-25 19:23 44.23601 -69.66528 37052 ft 470 kts 34°
2026-04-25 19:24 44.28427 -69.60310 37047 ft 469 kts 34°
2026-04-25 19:25 44.38038 -69.47884 37041 ft 469 kts 34°
2026-04-25 19:25 44.42816 -69.41685 37033 ft 471 kts 34°
2026-04-25 19:26 44.47628 -69.35423 37030 ft 468 kts 34°
2026-04-25 19:26 44.52432 -69.29163 37017 ft 471 kts 35°
2026-04-25 19:27 44.55592 -69.25034 37017 ft 469 kts 35°
2026-04-25 19:27 44.61961 -69.16695 37018 ft 469 kts 35°
2026-04-25 19:28 44.66752 -69.10406 37011 ft 471 kts 35°
2026-04-25 19:28 44.71519 -69.04130 37010 ft 468 kts 35°
2026-04-25 19:29 44.76291 -68.97837 37010 ft 470 kts 35°
2026-04-25 19:29 44.81036 -68.91561 37011 ft 470 kts 36°
2026-04-25 19:30 44.86023 -68.85725 37007 ft 460 kts 25°
2026-04-25 19:30 44.91462 -68.81045 37019 ft 458 kts 24°
2026-04-25 19:31 44.96938 -68.76353 37010 ft 460 kts 24°
2026-04-25 19:31 45.02403 -68.71639 37027 ft 461 kts 24°
2026-04-25 19:32 45.07901 -68.66877 37003 ft 458 kts 25°
2026-04-25 19:32 45.11500 -68.63751 37019 ft 459 kts 25°
2026-04-25 19:33 45.18808 -68.57386 37031 ft 459 kts 25°
2026-04-25 19:33 45.24239 -68.52643 37027 ft 461 kts 25°
2026-04-25 19:34 45.29688 -68.47871 37020 ft 460 kts 25°
2026-04-25 19:34 45.35151 -68.43076 37027 ft 462 kts 25°
2026-04-25 19:35 45.40589 -68.38290 37032 ft 460 kts 26°
2026-04-25 19:35 45.46058 -68.33468 37027 ft 460 kts 26°
2026-04-25 19:36 45.51532 -68.28631 37017 ft 463 kts 27°
2026-04-25 19:36 45.56958 -68.23821 37022 ft 461 kts 26°
2026-04-25 19:37 45.62434 -68.18961 37038 ft 463 kts 27°
2026-04-25 19:37 45.67873 -68.14118 37021 ft 462 kts 27°
2026-04-25 19:38 45.73340 -68.09242 37020 ft 464 kts 27°
2026-04-25 19:38 45.78818 -68.04343 37015 ft 463 kts 27°
2026-04-25 19:39 45.84250 -67.99474 37023 ft 464 kts 27°
2026-04-25 19:39 45.89715 -67.94564 37011 ft 462 kts 27°
2026-04-25 19:40 45.95153 -67.89668 37039 ft 465 kts 27°
2026-04-25 19:40 46.00631 -67.84722 37024 ft 462 kts 27°
2026-04-25 19:41 46.06072 -67.79800 37027 ft 464 kts 27°
2026-04-25 19:41 46.09698 -67.76513 37022 ft 464 kts 28°
2026-04-25 19:42 46.16987 -67.69888 37047 ft 464 kts 27°
2026-04-25 19:42 46.22502 -67.64863 37026 ft 464 kts 28°
2026-04-25 19:43 46.27945 -67.59891 37030 ft 464 kts 28°
2026-04-25 19:43 46.33419 -67.54879 37026 ft 463 kts 28°
2026-04-25 19:44 46.38866 -67.49880 37021 ft 463 kts 28°
2026-04-25 19:44 46.44345 -67.44839 37025 ft 464 kts 28°
2026-04-25 19:45 46.49756 -67.39848 37046 ft 463 kts 28°